Location: Boston
(42.3580°N, 71.0600°W)
Time: 16:12:53
(UTC-04:00)

Tiangong 1 - Pass Details

Date: 08 October 2017
Orbit: 293 x 320 km, 42.8° (Epoch: 19 October)

Event Time Altitude Azimuth Distance (km) Brightness Sun altitude
Rises 20:34:22 0° 275° (W) 2,026 6.0 -26.6°
Reaches altitude 10° 20:36:22 10° 276° (W) 1,192 4.5 -27.0°
Enters shadow 20:36:25 10° 277° (W) 1,171 4.5 -27.0°
